| time (UTC) | temp C | wind direction | speed KPH | gust KPH | rain 1hr cm | rain 24hr cm | rain mn cm | humidity % | barometer mb |
| 20260509022122 | 12 | 226 | 4.8 | 8.0 | 0.00 | 0.00 | 0.00 | 94 | 1007.7 |
| 20260509021618 | 12 | 245 | 6.4 | 8.0 | 0.00 | 0.00 | 0.00 | 93 | 1008.0 |
| 20260509021115 | 12 | 211 | 4.8 | 8.0 | 0.00 | 0.00 | 0.00 | 93 | 1007.7 |
| 20260509020614 | 12 | 232 | 3.2 | 6.4 | 0.00 | 0.00 | 0.00 | 92 | 1007.6 |
| 20260509020110 | 12 | 222 | 3.2 | 8.0 | 0.00 | 0.00 | 0.00 | 92 | 1007.7 |
| 20260509015609 | 12 | 222 | 4.8 | 8.0 | 0.00 | 0.00 | 0.00 | 91 | 1007.5 |
| 20260509015106 | 12 | 231 | 8.0 | 11.3 | 0.00 | 0.00 | 0.00 | 91 | 1007.5 |
| 20260509014602 | 12 | 243 | 4.8 | 6.4 | 0.00 | 0.00 | 0.00 | 91 | 1007.6 |
| 20260509014059 | 12 | 222 | 6.4 | 8.0 | 0.00 | 0.00 | 0.00 | 91 | 1007.6 |
| 20260509013556 | 12 | 241 | 4.8 | 6.4 | 0.00 | 0.00 | 0.00 | 91 | 1007.5 |
| 20260509013051 | 12 | 244 | 4.8 | 6.4 | 0.00 | 0.00 | 0.00 | 90 | 1007.6 |
| 20260509012548 | 12 | 234 | 4.8 | 6.4 | 0.00 | 0.00 | 0.00 | 90 | 1007.5 |
| 20260509012045 | 12 | 221 | 4.8 | 8.0 | 0.00 | 0.00 | 0.00 | 89 | 1007.4 |
| 20260509011543 | 12 | 222 | 3.2 | 6.4 | 0.00 | 0.00 | 0.00 | 89 | 1007.5 |
| 20260509011040 | 12 | 189 | 4.8 | 8.0 | 0.00 | 0.00 | 0.00 | 89 | 1007.5 |
| 20260509010538 | 13 | 220 | 3.2 | 6.4 | 0.00 | 0.00 | 0.00 | 88 | 1007.4 |
| 20260509010034 | 13 | 211 | 4.8 | 6.4 | 0.00 | 0.00 | 0.00 | 88 | 1007.4 |
| 20260509005532 | 13 | 211 | 4.8 | 14.5 | 0.00 | 0.00 | 0.00 | 87 | 1007.3 |
| 20260509005027 | 13 | 226 | 3.2 | 8.0 | 0.00 | 0.00 | 0.00 | 86 | 1007.2 |
| 20260509004524 | 13 | 214 | 4.8 | 8.0 | 0.00 | 0.00 | 0.00 | 86 | 1007.1 |
| 20260509004021 | 13 | 197 | 8.0 | 8.0 | 0.00 | 0.00 | 0.00 | 86 | 1007.2 |
| 20260509003519 | 13 | 206 | 4.8 | 11.3 | 0.00 | 0.00 | 0.00 | 85 | 1007.4 |
| 20260509003016 | 13 | 195 | 4.8 | 8.0 | 0.00 | 0.00 | 0.00 | 85 | 1007.5 |
| 20260509002514 | 13 | 227 | 6.4 | 8.0 | 0.00 | 0.00 | 0.00 | 84 | 1007.2 |
| 20260509002011 | 13 | 193 | 6.4 | 11.3 | 0.00 | 0.00 | 0.00 | 84 | 1007.1 |
| 20260509001508 | 13 | 196 | 4.8 | 6.4 | 0.00 | 0.00 | 0.00 | 83 | 1007.1 |
| 20260509001004 | 14 | 205 | 3.2 | 8.0 | 0.00 | 0.00 | 0.00 | 82 | 1007.4 |
| 20260509000503 | 14 | 245 | 6.4 | 8.0 | 0.00 | 0.00 | 0.00 | 81 | 1007.1 |
| 20260508235957 | 14 | 212 | 4.8 | 8.0 | 0.00 | 0.00 | 0.00 | 80 | 1007.0 |
| 20260508235456 | 15 | 230 | 4.8 | 8.0 | 0.00 | 0.00 | 0.00 | 80 | 1007.3 |
| 20260508234952 | 15 | 239 | 12.9 | 20.9 | 0.00 | 0.00 | 0.00 | 79 | 1007.3 |
| 20260508234449 | 15 | 253 | 19.3 | 25.7 | 0.00 | 0.00 | 0.00 | 79 | 1007.2 |
| 20260508233947 | 15 | 238 | 9.7 | 20.9 | 0.00 | 0.00 | 0.00 | 78 | 1007.1 |
| 20260508233446 | 15 | 245 | 16.1 | 20.9 | 0.00 | 0.00 | 0.00 | 77 | 1007.2 |
| 20260508232942 | 15 | 189 | 9.7 | 14.5 | 0.00 | 0.00 | 0.00 | 76 | 1007.2 |
| 20260508232439 | 15 | 254 | 12.9 | 17.7 | 0.00 | 0.00 | 0.00 | 77 | 1007.0 |
| 20260508231936 | 15 | 226 | 12.9 | 29.0 | 0.00 | 0.00 | 0.00 | 77 | 1007.0 |
| 20260508231434 | 15 | 243 | 9.7 | 20.9 | 0.00 | 0.00 | 0.00 | 77 | 1007.3 |
| 20260508230931 | 15 | 215 | 16.1 | 25.7 | 0.00 | 0.00 | 0.00 | 77 | 1007.0 |
| 20260508230427 | 15 | 202 | 11.3 | 14.5 | 0.00 | 0.00 | 0.00 | 77 | 1007.2 |
| 20260508225924 | 15 | 198 | 11.3 | 24.1 | 0.00 | 0.00 | 0.00 | 75 | 1007.3 |
| 20260508225421 | 16 | 203 | 11.3 | 20.9 | 0.00 | 0.00 | 0.00 | 74 | 1007.3 |
| 20260508224918 | 16 | 178 | 14.5 | 20.9 | 0.00 | 0.00 | 0.00 | 72 | 1007.2 |
| 20260508224416 | 15 | 186 | 9.7 | 20.9 | 0.00 | 0.00 | 0.00 | 72 | 1007.3 |
| 20260508223913 | 16 | 230 | 3.2 | 8.0 | 0.00 | 0.00 | 0.00 | 72 | 1007.4 |
| 20260508223411 | 16 | 245 | 8.0 | 17.7 | 0.00 | 0.00 | 0.00 | 72 | 1007.1 |
| 20260508222908 | 16 | 188 | 11.3 | 17.7 | 0.00 | 0.00 | 0.00 | 70 | 1007.2 |
| 20260508222405 | 16 | 264 | 11.3 | 17.7 | 0.00 | 0.00 | 0.00 | 70 | 1007.4 |
| 20260508221902 | 16 | 213 | 12.9 | 17.7 | 0.00 | 0.00 | 0.00 | 67 | 1007.3 |
| 20260508221357 | 16 | 248 | 12.9 | 20.9 | 0.00 | 0.00 | 0.00 | 69 | 1007.3 |
| 20260508220854 | 16 | 234 | 12.9 | 17.7 | 0.00 | 0.00 | 0.00 | 70 | 1007.3 |
| 20260508220350 | 16 | 233 | 12.9 | 20.9 | 0.00 | 0.00 | 0.00 | 68 | 1007.3 |
| 20260508215847 | 16 | 234 | 11.3 | 17.7 | 0.00 | 0.00 | 0.00 | 70 | 1007.1 |
| 20260508215344 | 16 | 257 | 16.1 | 20.9 | 0.00 | 0.00 | 0.00 | 68 | 1007.2 |
| 20260508214840 | 16 | 249 | 12.9 | 17.7 | 0.00 | 0.00 | 0.00 | 67 | 1007.3 |
| 20260508214338 | 16 | 264 | 19.3 | 24.1 | 0.00 | 0.00 | 0.00 | 66 | 1007.1 |
| 20260508213834 | 16 | 215 | 14.5 | 20.9 | 0.00 | 0.00 | 0.00 | 66 | 1007.3 |
| 20260508213332 | 16 | 270 | 14.5 | 29.0 | 0.00 | 0.00 | 0.00 | 67 | 1007.4 |
| 20260508212827 | 16 | 249 | 14.5 | 17.7 | 0.00 | 0.00 | 0.00 | 67 | 1007.4 |
| 20260508212323 | 16 | 241 | 9.7 | 20.9 | 0.00 | 0.00 | 0.00 | 68 | 1007.4 |
| 20260508211819 | 16 | 238 | 20.9 | 25.7 | 0.00 | 0.00 | 0.00 | 67 | 1007.4 |
| 20260508211315 | 16 | 216 | 8.0 | 11.3 | 0.00 | 0.00 | 0.00 | 69 | 1007.5 |
| 20260508210813 | 16 | 260 | 24.1 | 29.0 | 0.00 | 0.00 | 0.00 | 68 | 1007.2 |
| 20260508210309 | 16 | 266 | 14.5 | 17.7 | 0.00 | 0.00 | 0.00 | 71 | 1007.3 |
| 20260508205806 | 16 | 238 | 4.8 | 14.5 | 0.00 | 0.00 | 0.00 | 69 | 1007.4 |
| 20260508205306 | 16 | 204 | 9.7 | 17.7 | 0.00 | 0.00 | 0.00 | 70 | 1007.7 |
| 20260508204759 | 16 | 183 | 14.5 | 20.9 | 0.00 | 0.00 | 0.00 | 69 | 1007.7 |
| 20260508204256 | 16 | 245 | 8.0 | 20.9 | 0.00 | 0.00 | 0.00 | 70 | 1007.8 |
| 20260508203752 | 16 | 222 | 11.3 | 32.2 | 0.00 | 0.00 | 0.00 | 70 | 1007.7 |
| 20260508203248 | 16 | 253 | 24.1 | 29.0 | 0.00 | 0.00 | 0.00 | 70 | 1007.9 |
| 20260508202744 | 16 | 229 | 17.7 | 24.1 | 0.00 | 0.00 | 0.00 | 71 | 1007.9 |
| 20260508202242 | 16 | 199 | 11.3 | 25.7 | 0.00 | 0.00 | 0.00 | 71 | 1007.8 |
| 20260508201738 | 15 | 226 | 11.3 | 17.7 | 0.00 | 0.00 | 0.00 | 71 | 1007.8 |
| 20260508201235 | 16 | 184 | 11.3 | 17.7 | 0.00 | 0.00 | 0.00 | 71 | 1008.2 |
| 20260508200732 | 16 | 237 | 19.3 | 32.2 | 0.00 | 0.00 | 0.00 | 71 | 1008.1 |
| 20260508200228 | 16 | 187 | 14.5 | 20.9 | 0.00 | 0.00 | 0.00 | 72 | 1008.0 |
| 20260508195724 | 16 | 180 | 17.7 | 25.7 | 0.00 | 0.00 | 0.00 | 73 | 1008.2 |
| 20260508195221 | 16 | 164 | 17.7 | 24.1 | 0.00 | 0.00 | 0.00 | 71 | 1008.2 |
| 20260508194718 | 16 | 225 | 9.7 | 24.1 | 0.00 | 0.00 | 0.00 | 73 | 1008.4 |
| 20260508194214 | 16 | 188 | 9.7 | 11.3 | 0.00 | 0.00 | 0.00 | 67 | 1008.3 |
| 20260508193711 | 17 | 183 | 6.4 | 11.3 | 0.00 | 0.00 | 0.00 | 68 | 1008.4 |
| 20260508193208 | 16 | 221 | 9.7 | 11.3 | 0.00 | 0.00 | 0.00 | 67 | 1008.6 |
| 20260508192705 | 16 | 176 | 12.9 | 14.5 | 0.00 | 0.00 | 0.00 | 64 | 1008.7 |
| 20260508192202 | 16 | 185 | 9.7 | 24.1 | 0.00 | 0.00 | 0.00 | 66 | 1008.8 |
| 20260508191659 | 16 | 186 | 11.3 | 20.9 | 0.00 | 0.00 | 0.00 | 62 | 1008.5 |
| 20260508191155 | 16 | 190 | 6.4 | 25.7 | 0.00 | 0.00 | 0.00 | 62 | 1008.8 |
| 20260508190653 | 16 | 172 | 8.0 | 20.9 | 0.00 | 0.00 | 0.00 | 59 | 1008.5 |
| 20260508190149 | 17 | 169 | 14.5 | 17.7 | 0.00 | 0.00 | 0.00 | 53 | 1009.0 |
| 20260508185646 | 16 | 238 | 12.9 | 25.7 | 0.00 | 0.00 | 0.00 | 56 | 1009.0 |
| 20260508185143 | 17 | 232 | 11.3 | 25.7 | 0.00 | 0.00 | 0.00 | 58 | 1009.1 |
| 20260508184641 | 16 | 248 | 9.7 | 14.5 | 0.00 | 0.00 | 0.00 | 55 | 1009.1 |
| 20260508184138 | 16 | 231 | 17.7 | 24.1 | 0.00 | 0.00 | 0.00 | 57 | 1009.3 |
| 20260508183634 | 16 | 211 | 14.5 | 29.0 | 0.00 | 0.00 | 0.00 | 57 | 1009.4 |
| 20260508183130 | 16 | 268 | 20.9 | 24.1 | 0.00 | 0.00 | 0.00 | 60 | 1009.3 |
| 20260508182627 | 16 | 239 | 8.0 | 17.7 | 0.00 | 0.00 | 0.00 | 61 | 1009.4 |
| 20260508182124 | 16 | 183 | 11.3 | 20.9 | 0.00 | 0.00 | 0.00 | 63 | 1009.3 |
| 20260508181619 | 16 | 263 | 24.1 | 29.0 | 0.00 | 0.00 | 0.00 | 63 | 1009.3 |
| 20260508181117 | 15 | 238 | 8.0 | 17.7 | 0.00 | 0.00 | 0.00 | 61 | 1009.6 |
| 20260508180613 | 16 | 224 | 14.5 | 20.9 | 0.00 | 0.00 | 0.00 | 57 | 1009.5 |
| 20260508180109 | 16 | 251 | 8.0 | 20.9 | 0.00 | 0.00 | 0.00 | 55 | 1009.6 |
| 20260508175606 | 15 | 258 | 12.9 | 17.7 | 0.00 | 0.00 | 0.00 | 57 | 1009.7 |
| 20260508175103 | 16 | 238 | 20.9 | 25.7 | 0.00 | 0.00 | 0.00 | 55 | 1009.6 |
| 20260508174601 | 16 | 248 | 9.7 | 24.1 | 0.00 | 0.00 | 0.00 | 55 | 1009.8 |
| 20260508174057 | 16 | 179 | 11.3 | 17.7 | 0.00 | 0.00 | 0.00 | 58 | 1009.8 |
| 20260508173555 | 16 | 280 | 1.6 | 20.9 | 0.00 | 0.00 | 0.00 | 53 | 1010.2 |
| 20260508173050 | 16 | 265 | 14.5 | 32.2 | 0.00 | 0.00 | 0.00 | 57 | 1010.0 |
| 20260508172548 | 16 | 248 | 16.1 | 32.2 | 0.00 | 0.00 | 0.00 | 58 | 1010.1 |
| 20260508172044 | 15 | 249 | 14.5 | 20.9 | 0.00 | 0.00 | 0.00 | 58 | 1010.2 |
| 20260508171541 | 16 | 223 | 8.0 | 17.7 | 0.00 | 0.00 | 0.00 | 61 | 1010.3 |
| 20260508171037 | 15 | 249 | 9.7 | 11.3 | 0.00 | 0.00 | 0.00 | 64 | 1010.2 |
| 20260508170535 | 15 | 252 | 1.6 | 20.9 | 0.00 | 0.00 | 0.00 | 57 | 1010.1 |
| 20260508170032 | 15 | 202 | 6.4 | 17.7 | 0.00 | 0.00 | 0.00 | 58 | 1010.3 |
| 20260508165529 | 15 | 221 | 11.3 | 14.5 | 0.00 | 0.00 | 0.00 | 62 | 1010.4 |
| 20260508165026 | 15 | 191 | 11.3 | 14.5 | 0.00 | 0.00 | 0.00 | 64 | 1010.8 |
| 20260508164522 | 15 | 253 | 12.9 | 20.9 | 0.00 | 0.00 | 0.00 | 60 | 1010.7 |
| 20260508164019 | 15 | 234 | 9.7 | 14.5 | 0.00 | 0.00 | 0.00 | 63 | 1010.9 |
| 20260508163517 | 15 | 268 | 17.7 | 24.1 | 0.00 | 0.00 | 0.00 | 67 | 1010.9 |
| 20260508163013 | 15 | 173 | 11.3 | 14.5 | 0.00 | 0.00 | 0.00 | 71 | 1010.9 |
| 20260508162510 | 15 | 178 | 4.8 | 11.3 | 0.00 | 0.00 | 0.00 | 72 | 1010.8 |
| 20260508162008 | 15 | 198 | 8.0 | 17.7 | 0.00 | 0.00 | 0.00 | 72 | 1011.1 |
| 20260508161504 | 15 | 175 | 8.0 | 20.9 | 0.00 | 0.00 | 0.00 | 73 | 1010.9 |
| 20260508161001 | 14 | 248 | 3.2 | 8.0 | 0.00 | 0.00 | 0.00 | 75 | 1011.1 |
| 20260508160500 | 15 | 197 | 6.4 | 11.3 | 0.00 | 0.00 | 0.00 | 74 | 1010.9 |
| 20260508155956 | 15 | 192 | 8.0 | 11.3 | 0.00 | 0.00 | 0.00 | 76 | 1010.9 |
| 20260508155453 | 14 | 250 | 8.0 | 11.3 | 0.00 | 0.00 | 0.00 | 77 | 1010.9 |
| 20260508154950 | 15 | 219 | 6.4 | 20.9 | 0.00 | 0.00 | 0.00 | 79 | 1010.9 |
| 20260508154448 | 14 | 170 | 11.3 | 14.5 | 0.00 | 0.00 | 0.00 | 77 | 1011.2 |
| 20260508153944 | 14 | 184 | 9.7 | 11.3 | 0.00 | 0.00 | 0.00 | 75 | 1011.2 |
| 20260508153441 | 14 | 170 | 6.4 | 11.3 | 0.00 | 0.00 | 0.00 | 76 | 1011.0 |
| 20260508152937 | 14 | 240 | 0.0 | 3.2 | 0.00 | 0.00 | 0.00 | 74 | 1011.1 |
| 20260508152434 | 14 | 243 | 9.7 | 14.5 | 0.00 | 0.00 | 0.00 | 74 | 1011.1 |
| 20260508151930 | 13 | 208 | 3.2 | 11.3 | 0.00 | 0.00 | 0.00 | 74 | 1011.2 |
| 20260508151427 | 13 | 194 | 0.0 | 6.4 | 0.00 | 0.00 | 0.00 | 75 | 1011.0 |
| 20260508150923 | 13 | 255 | 8.0 | 11.3 | 0.00 | 0.00 | 0.00 | 78 | 1011.2 |
| 20260508150420 | 13 | 257 | 8.0 | 11.3 | 0.00 | 0.00 | 0.00 | 76 | 1011.3 |
| 20260508145916 | 13 | 236 | 9.7 | 11.3 | 0.00 | 0.00 | 0.00 | 78 | 1011.6 |
| 20260508145413 | 12 | 189 | 4.8 | 11.3 | 0.00 | 0.00 | 0.00 | 76 | 1011.4 |
| 20260508144910 | 12 | 224 | 4.8 | 11.3 | 0.00 | 0.00 | 0.00 | 79 | 1011.6 |
| 20260508144408 | 13 | 245 | 9.7 | 14.5 | 0.00 | 0.00 | 0.00 | 78 | 1011.3 |
| 20260508143905 | 13 | 229 | 0.0 | 3.2 | 0.00 | 0.00 | 0.00 | 79 | 1011.4 |
| 20260508143402 | 13 | 284 | 1.6 | 3.2 | 0.00 | 0.00 | 0.00 | 79 | 1011.3 |
| 20260508142858 | 12 | 226 | 0.0 | 3.2 | 0.00 | 0.00 | 0.00 | 79 | 1011.3 |
| 20260508142355 | 12 | 214 | 0.0 | 3.2 | 0.00 | 0.00 | 0.00 | 80 | 1011.2 |
| 20260508141852 | 12 | 126 | 4.8 | 6.4 | 0.00 | 0.00 | 0.00 | 81 | 1011.4 |
| 20260508141348 | 12 | 247 | 3.2 | 6.4 | 0.00 | 0.00 | 0.00 | 81 | 1011.5 |
| 20260508140846 | 12 | 325 | 1.6 | 3.2 | 0.00 | 0.00 | 0.00 | 82 | 1011.4 |
| 20260508140343 | 12 | 351 | 3.2 | 6.4 | 0.00 | 0.00 | 0.00 | 81 | 1011.4 |
| 20260508135838 | 12 | 328 | 4.8 | 8.0 | 0.00 | 0.00 | 0.00 | 83 | 1011.3 |
| 20260508135335 | 11 | 328 | 4.8 | 11.3 | 0.00 | 0.00 | 0.00 | 84 | 1011.4 |
| 20260508134831 | 11 | 313 | 3.2 | 6.4 | 0.00 | 0.00 | 0.00 | 84 | 1011.5 |
| 20260508134328 | 11 | 312 | 4.8 | 6.4 | 0.00 | 0.00 | 0.00 | 85 | 1011.3 |
| 20260508133825 | 11 | 287 | 1.6 | 6.4 | 0.00 | 0.00 | 0.00 | 85 | 1011.4 |
| 20260508133323 | 11 | 287 | 0.0 | 3.2 | 0.00 | 0.00 | 0.00 | 86 | 1011.5 |
| 20260508132820 | 11 | 287 | 0.0 | 6.4 | 0.00 | 0.00 | 0.00 | 85 | 1011.5 |
| 20260508132317 | 11 | 289 | 0.0 | 3.2 | 0.00 | 0.00 | 0.00 | 85 | 1011.6 |
| 20260508131813 | 11 | 291 | 4.8 | 6.4 | 0.00 | 0.00 | 0.00 | 85 | 1011.5 |
| 20260508131309 | 11 | 282 | 0.0 | 3.2 | 0.00 | 0.00 | 0.00 | 85 | 1011.6 |
| 20260508130806 | 11 | 275 | 0.0 | 3.2 | 0.00 | 0.00 | 0.00 | 86 | 1011.4 |
| 20260508130303 | 11 | 255 | 3.2 | 6.4 | 0.00 | 0.00 | 0.00 | 87 | 1011.3 |
| 20260508125759 | 11 | 255 | 1.6 | 6.4 | 0.00 | 0.00 | 0.00 | 87 | 1011.4 |
| 20260508125256 | 10 | 229 | 1.6 | 6.4 | 0.00 | 0.00 | 0.00 | 89 | 1011.4 |
| 20260508124754 | 10 | 236 | 4.8 | 6.4 | 0.00 | 0.00 | 0.00 | 89 | 1011.5 |
| 20260508124251 | 10 | 251 | 6.4 | 8.0 | 0.00 | 0.00 | 0.00 | 90 | 1011.5 |
| 20260508123749 | 9 | 261 | 6.4 | 8.0 | 0.00 | 0.00 | 0.00 | 91 | 1011.7 |
| 20260508123247 | 9 | 249 | 6.4 | 8.0 | 0.00 | 0.00 | 0.00 | 92 | 1011.7 |
| 20260508122743 | 9 | 225 | 8.0 | 14.5 | 0.00 | 0.00 | 0.00 | 92 | 1011.7 |
| 20260508122239 | 8 | 229 | 3.2 | 8.0 | 0.00 | 0.00 | 0.00 | 93 | 1011.7 |
| 20260508121737 | 8 | 262 | 9.7 | 11.3 | 0.00 | 0.00 | 0.00 | 94 | 1011.4 |
| 20260508121235 | 8 | 228 | 4.8 | 6.4 | 0.00 | 0.00 | 0.00 | 94 | 1011.7 |
| 20260508120732 | 8 | 283 | 1.6 | 6.4 | 0.00 | 0.00 | 0.00 | 95 | 1011.3 |
| 20260508120231 | 8 | 254 | 4.8 | 8.0 | 0.00 | 0.00 | 0.00 | 96 | 1011.4 |
| 20260508115728 | 7 | 256 | 6.4 | 11.3 | 0.00 | 0.00 | 0.00 | 96 | 1011.4 |
| 20260508115225 | 7 | 263 | 6.4 | 8.0 | 0.00 | 0.00 | 0.00 | 97 | 1011.2 |
| 20260508114721 | 7 | 261 | 8.0 | 8.0 | 0.00 | 0.00 | 0.00 | 98 | 1011.4 |
| 20260508114218 | 8 | 289 | 0.0 | 0.0 | 0.00 | 0.00 | 0.00 | 99 | 1011.1 |
| 20260508113715 | 7 | 248 | 3.2 | 3.2 | 0.00 | 0.00 | 0.00 | 99 | 1010.9 |
| 20260508113214 | 7 | 245 | 0.0 | 3.2 | 0.00 | 0.00 | 0.00 | 99 | 1010.9 |
| 20260508112709 | 7 | 247 | 0.0 | 3.2 | 0.00 | 0.00 | 0.00 | 99 | 1010.9 |
| 20260508112206 | 6 | 253 | 0.0 | 0.0 | 0.00 | 0.00 | 0.00 | 99 | 1011.2 |
| 20260508111703 | 6 | 247 | 0.0 | 3.2 | 0.00 | 0.00 | 0.00 | 99 | 1011.2 |
| 20260508111201 | 6 | 264 | 1.6 | 6.4 | 0.00 | 0.00 | 0.00 | 99 | 1011.2 |
| 20260508110658 | 6 | 254 | 0.0 | 0.0 | 0.00 | 0.00 | 0.00 | 99 | 1011.3 |
| 20260508110155 | 6 | 249 | 0.0 | 3.2 | 0.00 | 0.00 | 0.00 | 99 | 1010.8 |
| 20260508105654 | 6 | 245 | 0.0 | 0.0 | 0.00 | 0.00 | 0.00 | 99 | 1010.8 |
| 20260508105152 | 6 | 244 | 0.0 | 0.0 | 0.00 | 0.00 | 0.00 | 99 | 1010.9 |
| 20260508104649 | 5 | 237 | 0.0 | 3.2 | 0.00 | 0.00 | 0.00 | 99 | 1011.0 |
| 20260508104146 | 5 | 234 | 0.0 | 0.0 | 0.00 | 0.00 | 0.00 | 99 | 1010.7 |
| 20260508103643 | 5 | 233 | 0.0 | 0.0 | 0.00 | 0.00 | 0.00 | 99 | 1010.7 |
| 20260508103140 | 5 | 233 | 0.0 | 0.0 | 0.00 | 0.00 | 0.00 | 99 | 1010.9 |
| 20260508102637 | 5 | 233 | 0.0 | 0.0 | 0.00 | 0.00 | 0.00 | 99 | 1010.9 |
| 20260508102135 | 6 | 233 | 0.0 | 0.0 | 0.00 | 0.00 | 0.00 | 99 | 1010.9 |
| 20260508101632 | 6 | 233 | 0.0 | 3.2 | 0.00 | 0.00 | 0.00 | 99 | 1010.8 |
| 20260508101130 | 6 | 222 | 0.0 | 0.0 | 0.00 | 0.00 | 0.00 | 99 | 1010.9 |
| 20260508100627 | 6 | 236 | 0.0 | 0.0 | 0.00 | 0.00 | 0.00 | 99 | 1010.7 |
| 20260508100125 | 6 | 235 | 4.8 | 6.4 | 0.00 | 0.00 | 0.00 | 99 | 1010.9 |
| 20260508095621 | 6 | 249 | 1.6 | 6.4 | 0.00 | 0.00 | 0.00 | 99 | 1011.0 |
| 20260508095118 | 6 | 247 | 4.8 | 8.0 | 0.00 | 0.00 | 0.00 | 99 | 1010.8 |
| 20260508094615 | 6 | 245 | 1.6 | 6.4 | 0.00 | 0.00 | 0.00 | 99 | 1010.7 |
| 20260508094112 | 5 | 249 | 3.2 | 3.2 | 0.00 | 0.00 | 0.00 | 99 | 1010.9 |
| 20260508093609 | 5 | 245 | 0.0 | 0.0 | 0.00 | 0.00 | 0.00 | 99 | 1010.9 |
| 20260508093107 | 5 | 245 | 0.0 | 0.0 | 0.00 | 0.00 | 0.00 | 99 | 1010.8 |
| 20260508092604 | 5 | 245 | 0.0 | 0.0 | 0.00 | 0.00 | 0.00 | 99 | 1010.7 |
| 20260508092102 | 5 | 246 | 0.0 | 0.0 | 0.00 | 0.00 | 0.00 | 99 | 1010.8 |
| 20260508091559 | 6 | 247 | 0.0 | 0.0 | 0.00 | 0.00 | 0.00 | 99 | 1010.7 |
| 20260508091056 | 6 | 248 | 0.0 | 0.0 | 0.00 | 0.00 | 0.00 | 99 | 1010.9 |
| 20260508090554 | 6 | 244 | 0.0 | 0.0 | 0.00 | 0.00 | 0.00 | 99 | 1010.6 |
| 20260508090050 | 6 | 236 | 0.0 | 0.0 | 0.00 | 0.00 | 0.00 | 99 | 1011.0 |
| 20260508085547 | 6 | 224 | 0.0 | 3.2 | 0.00 | 0.00 | 0.00 | 99 | 1010.4 |
| 20260508085044 | 6 | 227 | 0.0 | 3.2 | 0.00 | 0.00 | 0.00 | 99 | 1010.9 |
| 20260508084541 | 6 | 220 | 0.0 | 6.4 | 0.00 | 0.00 | 0.00 | 99 | 1010.7 |
| 20260508084038 | 6 | 229 | 0.0 | 0.0 | 0.00 | 0.00 | 0.00 | 99 | 1010.9 |
| 20260508083535 | 6 | 228 | 0.0 | 3.2 | 0.00 | 0.00 | 0.00 | 99 | 1010.7 |
| 20260508083032 | 6 | 228 | 1.6 | 3.2 | 0.00 | 0.00 | 0.00 | 99 | 1010.7 |
| 20260508082528 | 6 | 238 | 0.0 | 0.0 | 0.00 | 0.00 | 0.00 | 99 | 1010.8 |
| 20260508082026 | 6 | 240 | 0.0 | 0.0 | 0.00 | 0.00 | 0.00 | 99 | 1010.8 |
| 20260508081523 | 6 | 237 | 3.2 | 8.0 | 0.00 | 0.00 | 0.00 | 99 | 1010.8 |
| 20260508081019 | 6 | 235 | 0.0 | 0.0 | 0.00 | 0.00 | 0.00 | 99 | 1010.9 |
| 20260508080517 | 6 | 230 | 0.0 | 3.2 | 0.00 | 0.00 | 0.00 | 99 | 1011.1 |
| 20260508080014 | 6 | 229 | 0.0 | 0.0 | 0.00 | 0.00 | 0.00 | 99 | 1011.0 |
| 20260508075511 | 6 | 233 | 0.0 | 0.0 | 0.00 | 0.00 | 0.00 | 99 | 1011.1 |
| 20260508075008 | 7 | 214 | 1.6 | 6.4 | 0.00 | 0.00 | 0.00 | 98 | 1011.0 |
| 20260508074506 | 7 | 241 | 0.0 | 3.2 | 0.00 | 0.00 | 0.00 | 98 | 1011.1 |
| 20260508074002 | 7 | 236 | 0.0 | 0.0 | 0.00 | 0.00 | 0.00 | 98 | 1010.8 |
| 20260508073459 | 7 | 241 | 0.0 | 3.2 | 0.00 | 0.00 | 0.00 | 98 | 1011.0 |
| 20260508072956 | 7 | 233 | 0.0 | 3.2 | 0.00 | 0.00 | 0.00 | 98 | 1010.9 |
| 20260508072453 | 7 | 242 | 1.6 | 6.4 | 0.00 | 0.00 | 0.00 | 98 | 1010.9 |
| 20260508071950 | 7 | 241 | 4.8 | 8.0 | 0.00 | 0.00 | 0.00 | 97 | 1011.2 |
| 20260508071448 | 7 | 262 | 4.8 | 6.4 | 0.00 | 0.00 | 0.00 | 97 | 1011.1 |
| 20260508070945 | 7 | 260 | 3.2 | 6.4 | 0.00 | 0.00 | 0.00 | 97 | 1011.1 |
| 20260508070443 | 7 | 255 | 4.8 | 6.4 | 0.00 | 0.00 | 0.00 | 97 | 1011.2 |
| 20260508065941 | 7 | 243 | 0.0 | 0.0 | 0.00 | 0.00 | 0.00 | 97 | 1011.2 |
| 20260508065439 | 7 | 246 | 1.6 | 3.2 | 0.00 | 0.00 | 0.00 | 97 | 1011.3 |
| 20260508064936 | 7 | 239 | 1.6 | 6.4 | 0.00 | 0.00 | 0.00 | 97 | 1011.2 |
| 20260508064434 | 7 | 227 | 6.4 | 8.0 | 0.00 | 0.00 | 0.00 | 97 | 1011.3 |
| 20260508063931 | 7 | 257 | 6.4 | 11.3 | 0.00 | 0.00 | 0.00 | 97 | 1011.1 |
| 20260508063428 | 7 | 248 | 4.8 | 11.3 | 0.00 | 0.00 | 0.00 | 97 | 1011.4 |
| 20260508062925 | 7 | 232 | 4.8 | 11.3 | 0.00 | 0.00 | 0.00 | 97 | 1011.5 |
| 20260508062424 | 7 | 233 | 6.4 | 14.5 | 0.00 | 0.00 | 0.00 | 97 | 1011.4 |
| 20260508061920 | 7 | 231 | 8.0 | 11.3 | 0.00 | 0.00 | 0.00 | 97 | 1011.3 |
| 20260508061418 | 7 | 201 | 4.8 | 11.3 | 0.00 | 0.00 | 0.00 | 97 | 1011.3 |
| 20260508060914 | 7 | 237 | 8.0 | 14.5 | 0.00 | 0.00 | 0.00 | 97 | 1011.1 |
| 20260508060412 | 7 | 231 | 4.8 | 8.0 | 0.00 | 0.00 | 0.00 | 97 | 1011.4 |
| 20260508055907 | 6 | 230 | 6.4 | 8.0 | 0.00 | 0.00 | 0.00 | 97 | 1011.6 |
| 20260508055404 | 6 | 238 | 8.0 | 8.0 | 0.00 | 0.00 | 0.00 | 97 | 1011.6 |
| 20260508054900 | 7 | 231 | 4.8 | 11.3 | 0.00 | 0.00 | 0.00 | 96 | 1011.6 |
| 20260508054358 | 6 | 230 | 4.8 | 11.3 | 0.00 | 0.00 | 0.00 | 96 | 1011.3 |
| 20260508053855 | 6 | 261 | 4.8 | 8.0 | 0.00 | 0.00 | 0.00 | 96 | 1011.5 |
| 20260508053352 | 6 | 226 | 8.0 | 11.3 | 0.00 | 0.00 | 0.00 | 96 | 1011.4 |
| 20260508052850 | 6 | 237 | 9.7 | 11.3 | 0.00 | 0.00 | 0.00 | 95 | 1011.5 |
| 20260508052347 | 6 | 235 | 3.2 | 6.4 | 0.00 | 0.00 | 0.00 | 95 | 1011.5 |
| 20260508051843 | 7 | 223 | 3.2 | 8.0 | 0.00 | 0.00 | 0.00 | 94 | 1011.5 |
| 20260508051338 | 7 | 218 | 3.2 | 6.4 | 0.00 | 0.00 | 0.00 | 94 | 1011.6 |
| 20260508050835 | 7 | 216 | 4.8 | 8.0 | 0.00 | 0.00 | 0.00 | 94 | 1011.7 |
| 20260508050332 | 7 | 200 | 4.8 | 8.0 | 0.00 | 0.00 | 0.00 | 93 | 1011.6 |
| 20260508045828 | 7 | 222 | 3.2 | 6.4 | 0.00 | 0.00 | 0.00 | 93 | 1011.5 |
| 20260508045326 | 7 | 222 | 4.8 | 6.4 | 0.00 | 0.00 | 0.00 | 92 | 1011.7 |
| 20260508044823 | 7 | 199 | 8.0 | 11.3 | 0.00 | 0.00 | 0.00 | 92 | 1011.6 |
| 20260508044319 | 7 | 206 | 4.8 | 6.4 | 0.00 | 0.00 | 0.00 | 92 | 1011.7 |
| 20260508043816 | 7 | 200 | 4.8 | 8.0 | 0.00 | 0.00 | 0.00 | 92 | 1011.6 |
| 20260508043313 | 7 | 211 | 4.8 | 8.0 | 0.00 | 0.00 | 0.00 | 91 | 1011.8 |
| 20260508042809 | 7 | 212 | 4.8 | 8.0 | 0.00 | 0.00 | 0.00 | 91 | 1011.5 |
| 20260508042308 | 7 | 219 | 3.2 | 6.4 | 0.00 | 0.00 | 0.00 | 90 | 1011.8 |
| 20260508041804 | 7 | 208 | 4.8 | 6.4 | 0.00 | 0.00 | 0.00 | 90 | 1011.4 |
| 20260508041300 | 7 | 223 | 0.0 | 6.4 | 0.00 | 0.00 | 0.00 | 90 | 1011.6 |
| 20260508040756 | 7 | 222 | 1.6 | 3.2 | 0.00 | 0.00 | 0.00 | 89 | 1011.6 |
| 20260508040254 | 7 | 231 | 3.2 | 3.2 | 0.00 | 0.00 | 0.00 | 89 | 1011.3 |
| 20260508035751 | 7 | 221 | 1.6 | 6.4 | 0.00 | 0.00 | 0.00 | 88 | 1011.4 |
| 20260508035249 | 8 | 196 | 3.2 | 6.4 | 0.00 | 0.00 | 0.00 | 88 | 1011.5 |
| 20260508034745 | 8 | 234 | 4.8 | 8.0 | 0.00 | 0.00 | 0.00 | 88 | 1011.7 |
| 20260508034243 | 8 | 255 | 3.2 | 6.4 | 0.00 | 0.00 | 0.00 | 87 | 1011.3 |
| 20260508033740 | 8 | 216 | 3.2 | 6.4 | 0.00 | 0.00 | 0.00 | 86 | 1011.7 |
| 20260508033238 | 8 | 228 | 8.0 | 11.3 | 0.00 | 0.00 | 0.00 | 86 | 1011.7 |
| 20260508032735 | 8 | 217 | 3.2 | 6.4 | 0.00 | 0.00 | 0.00 | 84 | 1011.6 |
| 20260508032232 | 8 | 247 | 8.0 | 11.3 | 0.00 | 0.00 | 0.00 | 84 | 1011.7 |
| 20260508031729 | 8 | 226 | 4.8 | 8.0 | 0.00 | 0.00 | 0.00 | 83 | 1011.6 |
| 20260508031225 | 8 | 217 | 3.2 | 6.4 | 0.00 | 0.00 | 0.00 | 84 | 1011.6 |
| 20260508030722 | 8 | 217 | 4.8 | 6.4 | 0.00 | 0.00 | 0.00 | 83 | 1011.7 |
| 20260508030219 | 8 | 221 | 1.6 | 3.2 | 0.00 | 0.00 | 0.00 | 82 | 1011.7 |
| 20260508025715 | 8 | 223 | 3.2 | 6.4 | 0.00 | 0.00 | 0.00 | 83 | 1011.7 |
| 20260508025213 | 8 | 199 | 6.4 | 8.0 | 0.00 | 0.00 | 0.00 | 82 | 1011.8 |
| 20260508024708 | 8 | 236 | 3.2 | 6.4 | 0.00 | 0.00 | 0.00 | 81 | 1012.1 |
| 20260508024206 | 9 | 219 | 3.2 | 6.4 | 0.00 | 0.00 | 0.00 | 81 | 1012.1 |
| 20260508023702 | 9 | 221 | 3.2 | 6.4 | 0.00 | 0.00 | 0.00 | 80 | 1012.0 |
| 20260508023200 | 9 | 232 | 1.6 | 8.0 | 0.00 | 0.00 | 0.00 | 80 | 1012.0 |
| 20260508022655 | 9 | 183 | 8.0 | 14.5 | 0.00 | 0.00 | 0.00 | 80 | 1011.9 |